Muncie, IN

3:15 PM EDT on April 25, 2018 (GMT -0400)
Delaware County-Johnson

Weather History for KMIE - December, 2013

Change the Weather History Date:

Friday, December 27, 2013

  Actual Average Record
Temperature  
Mean Temperature 37 °F 28 °F  
Max Temperature 44 °F 35 °F 66 °F (2008)
Min Temperature 30 °F 21 °F -7 °F (2004)
Degree Days  
Heating Degree Days 28 37  
Month to date heating degree days 954 914  
Since 1 July heating degree days 2205 2049  
Cooling Degree Days 0 0  
Month to date cooling degree days 0 0  
Year to date cooling degree days 973 956  
Moisture  
Dew Point 26 °F    
Average Humidity 65    
Maximum Humidity 72    
Minimum Humidity 57    
Precipitation  
Precipitation 0.00 in 0.09 in 1.45 in (2015)
Month to date precipitation 4.66 2.54  
Year to date precipitation 39.08 39.78  
Sea Level Pressure  
Sea Level Pressure 30.29 in    
Wind  
Wind Speed 10 mph (SW)    
Max Wind Speed 16 mph    
Max Gust Speed 25 mph    
Visibility 10 miles    
Events      
T = Trace of Precipitation, MM = Missing Value Source: NWS Daily Summary

Daily Weather History Graph

Daily Weather History Graph

Search for Another Location

Airport or City:

Astronomy

Dec. 27, 2013 Rise Set
Actual Time 8:03 AM EST 5:22 PM EST
Civil Twilight 7:32 AM EST 5:53 PM EST
Nautical Twilight 6:58 AM EST 6:27 PM EST
Astronomical Twilight 6:25 AM EST 7:00 PM EST
Moon 2:33 AM EST (12/27) 1:33 PM EST (12/27)
Length of Visible Light 10h 20m
Length of Day
9h 19m
Waning Crescent, 28% of the Moon is Illuminated
Dec 27
Waning Crescent
Jan 1
New
Jan 7
First Quarter
Jan 15
Full
Jan 24
Last Quarter

Hourly Weather History & Observations

Time (EST) Temp. Windchill Dew Point Humidity Pressure Visibility Wind Dir Wind Speed Gust Speed Precip Events Conditions
12:53 AM 34.0 °F 24.6 °F 21.9 °F 61% 30.29 in 10.0 mi SW 13.8 mph - N/A   Overcast
1:53 AM 34.0 °F 26.0 °F 23.0 °F 64% 30.28 in 10.0 mi SW 10.4 mph 20.7 mph N/A   Overcast
2:53 AM 34.0 °F 23.8 °F 21.9 °F 61% 30.29 in 10.0 mi WSW 16.1 mph 20.7 mph N/A   Overcast
3:53 AM 34.0 °F 25.5 °F 21.9 °F 61% 30.30 in 10.0 mi SW 11.5 mph - N/A   Overcast
4:53 AM 32.0 °F 23.6 °F 21.9 °F 66% 30.29 in 10.0 mi SW 10.4 mph - N/A   Clear
5:53 AM 32.0 °F 25.6 °F 21.9 °F 66% 30.30 in 10.0 mi SW 6.9 mph - N/A   Overcast
6:53 AM 30.9 °F - 23.0 °F 72% 30.30 in 10.0 mi North - - N/A   Mostly Cloudy
7:53 AM 30.0 °F 23.2 °F 23.0 °F 75% 30.32 in 10.0 mi SW 6.9 mph - N/A   Clear
8:53 AM 30.0 °F 22.4 °F 23.0 °F 75% 30.35 in 10.0 mi SW 8.1 mph - N/A   Clear
9:53 AM 33.1 °F 26.9 °F 24.1 °F 70% 30.38 in 10.0 mi SW 6.9 mph - N/A   Clear
10:53 AM 36.0 °F 29.0 °F 26.1 °F 67% 30.37 in 10.0 mi SW 9.2 mph - N/A   Clear
11:53 AM 37.9 °F 31.5 °F 27.0 °F 65% 30.35 in 10.0 mi SW 9.2 mph - N/A   Clear
12:53 PM 41.0 °F 35.2 °F 28.0 °F 60% 30.33 in 10.0 mi SSW 9.2 mph - N/A   Clear
1:53 PM 43.0 °F 37.2 °F 28.9 °F 58% 30.30 in 10.0 mi SW 10.4 mph - N/A   Clear
2:53 PM 43.0 °F 36.0 °F 30.0 °F 60% 30.28 in 10.0 mi SSW 13.8 mph 18.4 mph N/A   Clear
3:53 PM 43.0 °F 37.2 °F 28.9 °F 58% 30.27 in 10.0 mi SW 10.4 mph - N/A   Clear
4:53 PM 42.1 °F 36.6 °F 28.9 °F 60% 30.27 in 10.0 mi SW 9.2 mph - N/A   Clear
5:53 PM 37.9 °F 32.7 °F 28.9 °F 70% 30.28 in 10.0 mi South 6.9 mph - N/A   Clear
6:53 PM 37.0 °F 30.4 °F 28.9 °F 73% 30.27 in 10.0 mi SSW 9.2 mph - N/A   Clear
7:53 PM 37.9 °F 31.5 °F 28.9 °F 70% 30.27 in 10.0 mi SW 9.2 mph - N/A   Clear
8:53 PM 37.9 °F 30.9 °F 28.9 °F 70% 30.26 in 10.0 mi SSW 10.4 mph - N/A   Clear
9:53 PM 39.0 °F 30.6 °F 28.9 °F 67% 30.26 in 10.0 mi SW 15.0 mph - N/A   Clear
10:53 PM 37.9 °F 30.0 °F 28.9 °F 70% 30.25 in 10.0 mi SW 12.7 mph - N/A   Clear
11:53 PM 37.9 °F 30.0 °F 30.0 °F 73% 30.22 in 10.0 mi SW 12.7 mph - N/A   Clear